| time (UTC) | temp C | wind direction | speed KPH | gust KPH | rain 1hr cm | rain 24hr cm | rain mn cm | humidity % | barometer mb |
| 20260906131932 | 28 | 26 | 0.0 | 0.0 | 0.00 | 0.00 | 0.00 | 81 | 1014.0 |
| 20260906131428 | 27 | 25 | 0.0 | 0.0 | 0.00 | 0.00 | 0.00 | 83 | 1014.2 |
| 20260906130924 | 27 | 27 | 0.0 | 1.6 | 0.00 | 0.00 | 0.00 | 84 | 1014.3 |
| 20260906130423 | 28 | 32 | 0.0 | 0.0 | 0.00 | 0.00 | 0.00 | 81 | 1014.2 |
| 20260906125923 | 27 | 31 | 0.0 | 0.0 | 0.00 | 0.00 | 0.00 | 85 | 1014.0 |
| 20260906125420 | 27 | 31 | 0.0 | 0.0 | 0.00 | 0.00 | 0.00 | 84 | 1014.0 |
| 20260906124919 | 27 | 32 | 0.0 | 0.0 | 0.00 | 0.00 | 0.00 | 86 | 1013.9 |
| 20260906124416 | 26 | 32 | 0.0 | 0.0 | 0.00 | 0.00 | 0.00 | 89 | 1013.9 |
| 20260906123910 | 25 | 34 | 0.0 | 0.0 | 0.00 | 0.00 | 0.00 | 91 | 1013.9 |
| 20260906123409 | 25 | 34 | 0.0 | 1.6 | 0.00 | 0.00 | 0.00 | 93 | 1013.8 |
| 20260906122904 | 24 | 36 | 0.0 | 1.6 | 0.00 | 0.00 | 0.00 | 95 | 1013.9 |
| 20260906122359 | 24 | 36 | 0.0 | 1.6 | 0.00 | 0.00 | 0.00 | 95 | 1014.1 |
| 20260906121856 | 24 | 79 | 0.0 | 0.0 | 0.00 | 0.00 | 0.00 | 97 | 1013.7 |
| 20260906121351 | 23 | 79 | 0.0 | 0.0 | 0.00 | 0.00 | 0.00 | 97 | 1013.9 |
| 20260906120847 | 23 | 79 | 0.0 | 0.0 | 0.00 | 0.00 | 0.00 | 97 | 1013.8 |
| 20260906120343 | 23 | 79 | 0.0 | 1.6 | 0.00 | 0.00 | 0.00 | 97 | 1013.7 |
| 20260906115839 | 23 | 35 | 0.0 | 0.0 | 0.00 | 0.00 | 0.00 | 97 | 1013.7 |
| 20260906115334 | 23 | 36 | 0.0 | 0.0 | 0.00 | 0.00 | 0.00 | 98 | 1013.7 |
| 20260906114833 | 23 | 36 | 0.0 | 0.0 | 0.00 | 0.00 | 0.00 | 98 | 1013.6 |
| 20260906114329 | 23 | 36 | 0.0 | 0.0 | 0.00 | 0.00 | 0.00 | 98 | 1013.7 |
| 20260906113824 | 23 | 37 | 0.0 | 1.6 | 0.00 | 0.00 | 0.00 | 98 | 1013.6 |
| 20260906113323 | 23 | 12 | 0.0 | 1.6 | 0.00 | 0.00 | 0.00 | 99 | 1013.7 |
| 20260906112818 | 23 | 35 | 0.0 | 0.0 | 0.00 | 0.00 | 0.00 | 99 | 1013.6 |
| 20260906112315 | 23 | 44 | 0.0 | 3.2 | 0.00 | 0.00 | 0.00 | 99 | 1013.6 |
| 20260906111814 | 23 | 65 | 0.0 | 0.0 | 0.00 | 0.00 | 0.00 | 99 | 1013.5 |
| 20260906111314 | 23 | 83 | 0.0 | 0.0 | 0.00 | 0.00 | 0.00 | 99 | 1013.4 |
| 20260906110809 | 23 | 84 | 0.0 | 0.0 | 0.00 | 0.00 | 0.00 | 98 | 1013.4 |
| 20260906110305 | 23 | 38 | 0.0 | 0.0 | 0.00 | 0.00 | 0.00 | 98 | 1013.6 |
| 20260906105804 | 23 | 39 | 0.0 | 1.6 | 0.00 | 0.00 | 0.00 | 98 | 1013.7 |
| 20260906105259 | 23 | 46 | 0.0 | 0.0 | 0.00 | 0.00 | 0.00 | 98 | 1013.4 |
| 20260906104755 | 23 | 34 | 0.0 | 1.6 | 0.00 | 0.00 | 0.00 | 98 | 1013.7 |
| 20260906104253 | 23 | 34 | 0.0 | 1.6 | 0.00 | 0.00 | 0.00 | 98 | 1013.8 |
| 20260906103751 | 23 | 30 | 0.0 | 1.6 | 0.00 | 0.00 | 0.00 | 98 | 1013.7 |
| 20260906103246 | 23 | 164 | 1.6 | 3.2 | 0.00 | 0.00 | 0.00 | 98 | 1013.5 |
| 20260906102742 | 23 | 42 | 0.0 | 1.6 | 0.00 | 0.00 | 0.00 | 98 | 1013.5 |
| 20260906102240 | 23 | 353 | 3.2 | 4.8 | 0.00 | 0.00 | 0.00 | 98 | 1013.5 |
| 20260906101736 | 23 | 30 | 0.0 | 4.8 | 0.00 | 0.00 | 0.00 | 98 | 1013.4 |
| 20260906101230 | 23 | 41 | 0.0 | 3.2 | 0.00 | 0.00 | 0.00 | 98 | 1013.4 |
| 20260906100726 | 23 | 31 | 0.0 | 3.2 | 0.00 | 0.00 | 0.00 | 99 | 1013.4 |
| 20260906100226 | 23 | 40 | 1.6 | 3.2 | 0.00 | 0.00 | 0.00 | 99 | 1013.3 |
| 20260906095721 | 22 | 45 | 0.0 | 1.6 | 0.00 | 0.00 | 0.00 | 98 | 1013.3 |
| 20260906095216 | 22 | 20 | 0.0 | 1.6 | 0.00 | 0.00 | 0.00 | 98 | 1013.4 |
| 20260906094714 | 22 | 55 | 0.0 | 1.6 | 0.00 | 0.00 | 0.00 | 98 | 1013.1 |
| 20260906094210 | 22 | 53 | 0.0 | 0.0 | 0.00 | 0.00 | 0.00 | 98 | 1013.2 |
| 20260906093707 | 23 | 56 | 0.0 | 0.0 | 0.00 | 0.00 | 0.00 | 98 | 1012.9 |
| 20260906093202 | 23 | 56 | 0.0 | 0.0 | 0.00 | 0.00 | 0.00 | 98 | 1012.9 |
| 20260906092657 | 22 | 101 | 0.0 | 1.6 | 0.00 | 0.00 | 0.00 | 98 | 1013.1 |
| 20260906092156 | 23 | 189 | 3.2 | 3.2 | 0.00 | 0.00 | 0.00 | 97 | 1012.9 |
| 20260906091653 | 22 | 78 | 0.0 | 1.6 | 0.00 | 0.00 | 0.00 | 97 | 1013.0 |
| 20260906091149 | 22 | 84 | 0.0 | 1.6 | 0.00 | 0.00 | 0.00 | 97 | 1013.1 |
| 20260906090645 | 22 | 96 | 0.0 | 1.6 | 0.00 | 0.00 | 0.00 | 97 | 1013.1 |
| 20260906090144 | 22 | 104 | 1.6 | 1.6 | 0.00 | 0.00 | 0.00 | 97 | 1012.8 |
| 20260906085643 | 22 | 88 | 0.0 | 3.2 | 0.00 | 0.00 | 0.00 | 97 | 1013.0 |
| 20260906085137 | 22 | 107 | 1.6 | 3.2 | 0.00 | 0.00 | 0.00 | 97 | 1013.0 |
| 20260906084632 | 22 | 100 | 0.0 | 1.6 | 0.00 | 0.00 | 0.00 | 96 | 1012.8 |
| 20260906084131 | 22 | 88 | 0.0 | 0.0 | 0.00 | 0.00 | 0.00 | 96 | 1012.8 |
| 20260906083626 | 22 | 81 | 0.0 | 1.6 | 0.00 | 0.00 | 0.00 | 96 | 1012.8 |
| 20260906083121 | 22 | 117 | 1.6 | 1.6 | 0.00 | 0.00 | 0.00 | 95 | 1012.6 |
| 20260906082616 | 23 | 126 | 1.6 | 1.6 | 0.00 | 0.00 | 0.00 | 95 | 1012.5 |
| 20260906082112 | 23 | 102 | 1.6 | 1.6 | 0.00 | 0.00 | 0.00 | 94 | 1012.7 |
| 20260906081608 | 23 | 130 | 1.6 | 1.6 | 0.00 | 0.00 | 0.00 | 94 | 1012.5 |
| 20260906081103 | 23 | 18 | 0.0 | 3.2 | 0.00 | 0.00 | 0.00 | 94 | 1012.8 |
| 20260906080559 | 23 | 336 | 1.6 | 3.2 | 0.00 | 0.00 | 0.00 | 95 | 1012.8 |
| 20260906080055 | 22 | 205 | 1.6 | 3.2 | 0.00 | 0.00 | 0.00 | 95 | 1012.8 |
| 20260906075549 | 22 | 69 | 0.0 | 3.2 | 0.00 | 0.00 | 0.00 | 95 | 1012.8 |
| 20260906075044 | 22 | 139 | 1.6 | 1.6 | 0.00 | 0.00 | 0.00 | 97 | 1012.8 |
| 20260906074539 | 22 | 242 | 1.6 | 3.2 | 0.00 | 0.00 | 0.00 | 98 | 1012.9 |
| 20260906074037 | 21 | 91 | 0.0 | 0.0 | 0.00 | 0.00 | 0.00 | 97 | 1013.0 |
| 20260906073532 | 21 | 91 | 0.0 | 0.0 | 0.00 | 0.00 | 0.00 | 97 | 1012.7 |
| 20260906073029 | 21 | 91 | 0.0 | 0.0 | 0.00 | 0.00 | 0.00 | 97 | 1012.8 |
| 20260906072523 | 21 | 78 | 0.0 | 0.0 | 0.00 | 0.00 | 0.00 | 97 | 1012.6 |
| 20260906072020 | 21 | 93 | 0.0 | 0.0 | 0.00 | 0.00 | 0.00 | 97 | 1012.7 |
| 20260906071515 | 21 | 114 | 1.6 | 1.6 | 0.00 | 0.00 | 0.00 | 97 | 1012.8 |
| 20260906071011 | 21 | 138 | 1.6 | 3.2 | 0.00 | 0.00 | 0.00 | 97 | 1012.9 |
| 20260906070507 | 21 | 97 | 0.0 | 0.0 | 0.00 | 0.00 | 0.00 | 97 | 1012.9 |
| 20260906070002 | 21 | 140 | 1.6 | 3.2 | 0.00 | 0.00 | 0.00 | 96 | 1012.9 |
| 20260906065502 | 21 | 146 | 3.2 | 3.2 | 0.00 | 0.00 | 0.00 | 96 | 1012.7 |
| 20260906064957 | 21 | 87 | 0.0 | 1.6 | 0.00 | 0.00 | 0.00 | 96 | 1013.1 |
| 20260906064453 | 21 | 87 | 0.0 | 0.0 | 0.00 | 0.00 | 0.00 | 95 | 1012.6 |
| 20260906063948 | 21 | 87 | 0.0 | 0.0 | 0.00 | 0.00 | 0.00 | 95 | 1012.9 |
| 20260906063444 | 22 | 99 | 0.0 | 1.6 | 0.00 | 0.00 | 0.00 | 94 | 1012.9 |
| 20260906062943 | 22 | 96 | 1.6 | 1.6 | 0.00 | 0.00 | 0.00 | 93 | 1013.1 |
| 20260906062439 | 22 | 41 | 0.0 | 0.0 | 0.00 | 0.00 | 0.00 | 94 | 1012.8 |
| 20260906061934 | 22 | 68 | 0.0 | 0.0 | 0.00 | 0.00 | 0.00 | 93 | 1012.9 |
| 20260906061429 | 22 | 69 | 0.0 | 0.0 | 0.00 | 0.00 | 0.00 | 93 | 1013.1 |
| 20260906060924 | 22 | 69 | 0.0 | 0.0 | 0.00 | 0.00 | 0.00 | 94 | 1013.5 |
| 20260906060421 | 22 | 69 | 0.0 | 0.0 | 0.00 | 0.00 | 0.00 | 94 | 1013.5 |
| 20260906055917 | 22 | 69 | 0.0 | 0.0 | 0.00 | 0.00 | 0.00 | 94 | 1013.5 |
| 20260906055413 | 22 | 69 | 0.0 | 0.0 | 0.00 | 0.00 | 0.00 | 93 | 1013.4 |
| 20260906054908 | 22 | 69 | 0.0 | 0.0 | 0.00 | 0.00 | 0.00 | 93 | 1013.5 |
| 20260906054403 | 22 | 69 | 0.0 | 0.0 | 0.00 | 0.00 | 0.00 | 93 | 1013.6 |
| 20260906053859 | 22 | 69 | 0.0 | 1.6 | 0.00 | 0.00 | 0.00 | 93 | 1013.6 |
| 20260906053354 | 22 | 39 | 0.0 | 0.0 | 0.00 | 0.00 | 0.00 | 93 | 1013.7 |
| 20260906052850 | 22 | 51 | 0.0 | 0.0 | 0.00 | 0.00 | 0.00 | 92 | 1013.8 |
| 20260906052346 | 22 | 56 | 0.0 | 0.0 | 0.00 | 0.00 | 0.00 | 92 | 1013.7 |
| 20260906051843 | 22 | 98 | 1.6 | 1.6 | 0.00 | 0.00 | 0.00 | 92 | 1013.9 |
| 20260906051342 | 22 | 114 | 1.6 | 1.6 | 0.00 | 0.00 | 0.00 | 91 | 1013.7 |
| 20260906050838 | 22 | 36 | 0.0 | 0.0 | 0.00 | 0.00 | 0.00 | 89 | 1013.8 |
| 20260906050333 | 22 | 277 | 4.8 | 4.8 | 0.00 | 0.00 | 0.00 | 89 | 1013.7 |
| 20260906045832 | 22 | 339 | 1.6 | 1.6 | 0.00 | 0.00 | 0.00 | 91 | 1013.4 |
| 20260906045326 | 22 | 11 | 1.6 | 1.6 | 0.00 | 0.00 | 0.00 | 92 | 1013.6 |
| 20260906044823 | 22 | 22 | 1.6 | 1.6 | 0.00 | 0.00 | 0.00 | 91 | 1013.7 |
| 20260906044317 | 22 | 33 | 0.0 | 0.0 | 0.00 | 0.00 | 0.00 | 91 | 1013.6 |
| 20260906043813 | 22 | 33 | 0.0 | 0.0 | 0.00 | 0.00 | 0.00 | 91 | 1013.8 |
| 20260906043308 | 22 | 33 | 0.0 | 0.0 | 0.00 | 0.00 | 0.00 | 91 | 1014.0 |
| 20260906042803 | 22 | 34 | 0.0 | 0.0 | 0.00 | 0.00 | 0.00 | 91 | 1014.2 |
| 20260906042306 | 22 | 37 | 0.0 | 1.6 | 0.00 | 0.00 | 0.00 | 92 | 1014.1 |
| 20260906041757 | 22 | 26 | 0.0 | 0.0 | 0.00 | 0.00 | 0.00 | 92 | 1014.1 |
| 20260906041253 | 22 | 30 | 0.0 | 1.6 | 0.00 | 0.00 | 0.00 | 92 | 1014.2 |
| 20260906040748 | 22 | 336 | 1.6 | 1.6 | 0.00 | 0.00 | 0.00 | 92 | 1014.2 |
| 20260906040243 | 22 | 51 | 0.0 | 0.0 | 0.00 | 0.00 | 0.00 | 92 | 1014.2 |
| 20260906035738 | 22 | 72 | 0.0 | 0.0 | 0.00 | 0.00 | 0.00 | 92 | 1014.0 |
| 20260906035234 | 22 | 64 | 0.0 | 0.0 | 0.00 | 0.00 | 0.00 | 92 | 1014.1 |
| 20260906034734 | 22 | 75 | 0.0 | 1.6 | 0.00 | 0.00 | 0.00 | 91 | 1014.4 |
| 20260906034229 | 22 | 69 | 0.0 | 3.2 | 0.00 | 0.00 | 0.00 | 91 | 1014.7 |
| 20260906033725 | 22 | 36 | 1.6 | 1.6 | 0.00 | 0.00 | 0.00 | 92 | 1014.5 |
| 20260906033224 | 22 | 54 | 0.0 | 0.0 | 0.00 | 0.00 | 0.00 | 91 | 1014.5 |
| 20260906032721 | 22 | 54 | 0.0 | 0.0 | 0.00 | 0.00 | 0.00 | 90 | 1014.3 |
| 20260906032221 | 22 | 54 | 0.0 | 1.6 | 0.00 | 0.00 | 0.00 | 90 | 1014.3 |
| 20260906031716 | 22 | 133 | 0.0 | 1.6 | 0.00 | 0.00 | 0.00 | 89 | 1014.0 |
| 20260906031212 | 23 | 85 | 1.6 | 4.8 | 0.00 | 0.00 | 0.00 | 88 | 1014.1 |
| 20260906030711 | 23 | 64 | 1.6 | 8.0 | 0.00 | 0.00 | 0.00 | 85 | 1014.4 |
| 20260906030206 | 24 | 89 | 0.0 | 3.2 | 0.00 | 0.00 | 0.00 | 81 | 1014.4 |
| 20260906025706 | 25 | 74 | 0.0 | 1.6 | 0.00 | 0.00 | 0.00 | 77 | 1014.1 |
| 20260906025200 | 25 | 94 | 0.0 | 0.0 | 0.00 | 0.00 | 0.00 | 77 | 1013.8 |
| 20260906024654 | 25 | 95 | 0.0 | 1.6 | 0.00 | 0.00 | 0.00 | 76 | 1013.9 |
| 20260906024153 | 25 | 25 | 0.0 | 0.0 | 0.00 | 0.00 | 0.00 | 74 | 1013.7 |
| 20260906023649 | 25 | 290 | 1.6 | 1.6 | 0.00 | 0.00 | 0.00 | 75 | 1013.6 |
| 20260906023149 | 25 | 2 | 0.0 | 3.2 | 0.00 | 0.00 | 0.00 | 76 | 1013.9 |
| 20260906022644 | 25 | 90 | 0.0 | 0.0 | 0.00 | 0.00 | 0.00 | 76 | 1013.9 |
| 20260906022140 | 25 | 90 | 0.0 | 1.6 | 0.00 | 0.00 | 0.00 | 77 | 1013.9 |
| 20260906021636 | 25 | 90 | 0.0 | 0.0 | 0.00 | 0.00 | 0.00 | 77 | 1013.6 |
| 20260906021135 | 25 | 90 | 0.0 | 0.0 | 0.00 | 0.00 | 0.00 | 76 | 1013.8 |
| 20260906020635 | 25 | 90 | 0.0 | 1.6 | 0.00 | 0.00 | 0.00 | 76 | 1013.5 |
| 20260906020130 | 25 | 85 | 0.0 | 0.0 | 0.00 | 0.00 | 0.00 | 75 | 1013.9 |
| 20260906015624 | 25 | 80 | 1.6 | 1.6 | 0.00 | 0.00 | 0.00 | 73 | 1013.8 |
| 20260906015122 | 26 | 175 | 3.2 | 3.2 | 0.00 | 0.00 | 0.00 | 71 | 1013.6 |
| 20260906014617 | 26 | 94 | 0.0 | 3.2 | 0.00 | 0.00 | 0.00 | 68 | 1014.0 |
| 20260906014114 | 26 | 75 | 0.0 | 4.8 | 0.00 | 0.00 | 0.00 | 67 | 1014.2 |
| 20260906013609 | 27 | 83 | 1.6 | 3.2 | 0.00 | 0.00 | 0.00 | 68 | 1014.2 |
| 20260906013104 | 27 | 25 | 0.0 | 4.8 | 0.00 | 0.00 | 0.00 | 70 | 1014.1 |
| 20260906012559 | 27 | 64 | 0.0 | 3.2 | 0.00 | 0.00 | 0.00 | 70 | 1014.1 |
| 20260906012058 | 27 | 5 | 4.8 | 4.8 | 0.00 | 0.00 | 0.00 | 71 | 1013.9 |
| 20260906011555 | 27 | 87 | 3.2 | 9.7 | 0.00 | 0.00 | 0.00 | 86 | 1013.8 |
| 20260906011049 | 27 | 101 | 0.0 | 0.0 | 0.00 | 0.00 | 0.00 | 86 | 1013.4 |
| 20260906010544 | 27 | 102 | 0.0 | 0.0 | 0.00 | 0.00 | 0.00 | 86 | 1012.9 |
| 20260906010041 | 27 | 152 | 1.6 | 3.2 | 0.00 | 0.00 | 0.00 | 85 | 1012.7 |
| 20260906005540 | 27 | 162 | 3.2 | 3.2 | 0.00 | 0.00 | 0.00 | 85 | 1012.8 |
| 20260906005039 | 27 | 95 | 0.0 | 1.6 | 0.00 | 0.00 | 0.00 | 84 | 1012.8 |
| 20260906004538 | 27 | 94 | 0.0 | 3.2 | 0.00 | 0.00 | 0.00 | 84 | 1012.4 |
| 20260906004033 | 27 | 97 | 1.6 | 3.2 | 0.00 | 0.00 | 0.00 | 84 | 1012.5 |
| 20260906003529 | 27 | 132 | 3.2 | 4.8 | 0.00 | 0.00 | 0.00 | 84 | 1012.2 |
| 20260906003025 | 28 | 182 | 4.8 | 8.0 | 0.00 | 0.00 | 0.00 | 84 | 1011.9 |
| 20260906002519 | 28 | 167 | 3.2 | 4.8 | 0.00 | 0.00 | 0.00 | 83 | 1012.0 |
| 20260906002014 | 28 | 86 | 0.0 | 1.6 | 0.00 | 0.00 | 0.00 | 83 | 1012.1 |
| 20260906001510 | 28 | 91 | 0.0 | 3.2 | 0.00 | 0.00 | 0.00 | 82 | 1012.1 |
| 20260906001004 | 28 | 176 | 3.2 | 4.8 | 0.00 | 0.00 | 0.00 | 80 | 1012.2 |
| 20260906000500 | 28 | 171 | 4.8 | 4.8 | 0.00 | 0.00 | 0.00 | 80 | 1012.5 |
| 20260905235959 | 29 | 147 | 1.6 | 3.2 | 0.00 | 0.00 | 0.00 | 79 | 1012.5 |
| 20260905235454 | 29 | 134 | 3.2 | 9.7 | 0.00 | 0.00 | 0.00 | 78 | 1012.6 |
| 20260905234949 | 29 | 184 | 3.2 | 3.2 | 0.00 | 0.00 | 0.00 | 79 | 1012.8 |
| 20260905234444 | 30 | 173 | 4.8 | 4.8 | 0.00 | 0.00 | 0.00 | 78 | 1012.6 |
| 20260905233938 | 30 | 176 | 4.8 | 8.0 | 0.00 | 0.00 | 0.00 | 77 | 1012.4 |
| 20260905233434 | 30 | 156 | 4.8 | 9.7 | 0.00 | 0.00 | 0.00 | 77 | 1012.3 |
| 20260905232933 | 30 | 123 | 1.6 | 4.8 | 0.00 | 0.00 | 0.00 | 76 | 1012.5 |
| 20260905232429 | 30 | 76 | 1.6 | 4.8 | 0.00 | 0.00 | 0.00 | 75 | 1012.3 |
| 20260905231924 | 30 | 163 | 4.8 | 4.8 | 0.00 | 0.00 | 0.00 | 75 | 1012.2 |
| 20260905231420 | 31 | 174 | 4.8 | 4.8 | 0.00 | 0.00 | 0.00 | 74 | 1012.4 |
| 20260905230917 | 31 | 199 | 3.2 | 8.0 | 0.00 | 0.00 | 0.00 | 74 | 1012.1 |
| 20260905230414 | 31 | 179 | 4.8 | 4.8 | 0.00 | 0.00 | 0.00 | 74 | 1012.1 |
| 20260905225907 | 31 | 181 | 6.4 | 8.0 | 0.00 | 0.00 | 0.00 | 73 | 1012.6 |
| 20260905225403 | 31 | 175 | 4.8 | 8.0 | 0.00 | 0.00 | 0.00 | 72 | 1012.5 |
| 20260905224858 | 31 | 180 | 3.2 | 9.7 | 0.00 | 0.00 | 0.00 | 71 | 1012.4 |
| 20260905224353 | 31 | 129 | 3.2 | 8.0 | 0.00 | 0.00 | 0.00 | 72 | 1012.2 |
| 20260905223848 | 31 | 168 | 4.8 | 4.8 | 0.00 | 0.00 | 0.00 | 71 | 1012.0 |
| 20260905223346 | 31 | 182 | 1.6 | 8.0 | 0.00 | 0.00 | 0.00 | 72 | 1012.2 |
| 20260905222840 | 31 | 145 | 1.6 | 8.0 | 0.00 | 0.00 | 0.00 | 71 | 1012.1 |
| 20260905222338 | 32 | 197 | 3.2 | 8.0 | 0.00 | 0.00 | 0.00 | 70 | 1012.1 |
| 20260905221835 | 32 | 92 | 0.0 | 4.8 | 0.00 | 0.00 | 0.00 | 70 | 1012.0 |
| 20260905221332 | 32 | 129 | 1.6 | 8.0 | 0.00 | 0.00 | 0.00 | 71 | 1012.0 |
| 20260905220827 | 32 | 154 | 3.2 | 4.8 | 0.00 | 0.00 | 0.00 | 71 | 1012.2 |
| 20260905220323 | 32 | 159 | 1.6 | 8.0 | 0.00 | 0.00 | 0.00 | 70 | 1012.2 |
| 20260905215822 | 32 | 196 | 1.6 | 4.8 | 0.00 | 0.00 | 0.00 | 70 | 1012.3 |
| 20260905215318 | 32 | 167 | 3.2 | 8.0 | 0.00 | 0.00 | 0.00 | 70 | 1012.1 |
| 20260905214815 | 32 | 194 | 3.2 | 11.3 | 0.00 | 0.00 | 0.00 | 70 | 1012.2 |
| 20260905214310 | 32 | 105 | 1.6 | 9.7 | 0.00 | 0.00 | 0.00 | 68 | 1012.4 |
| 20260905213804 | 32 | 198 | 3.2 | 4.8 | 0.00 | 0.00 | 0.00 | 69 | 1012.2 |
| 20260905213300 | 32 | 98 | 0.0 | 8.0 | 0.00 | 0.00 | 0.00 | 69 | 1012.3 |
| 20260905212755 | 32 | 178 | 4.8 | 8.0 | 0.00 | 0.00 | 0.00 | 70 | 1012.3 |
| 20260905212255 | 32 | 115 | 0.0 | 4.8 | 0.00 | 0.00 | 0.00 | 69 | 1012.5 |
| 20260905211749 | 32 | 108 | 1.6 | 8.0 | 0.00 | 0.00 | 0.00 | 68 | 1012.3 |
| 20260905211244 | 32 | 154 | 1.6 | 4.8 | 0.00 | 0.00 | 0.00 | 69 | 1012.7 |
| 20260905210742 | 32 | 173 | 3.2 | 11.3 | 0.00 | 0.00 | 0.00 | 69 | 1012.5 |
| 20260905210240 | 32 | 169 | 3.2 | 4.8 | 0.00 | 0.00 | 0.00 | 70 | 1012.6 |
| 20260905205739 | 32 | 33 | 4.8 | 8.0 | 0.00 | 0.00 | 0.00 | 69 | 1012.5 |
| 20260905205235 | 32 | 141 | 8.0 | 11.3 | 0.00 | 0.00 | 0.00 | 69 | 1012.6 |
| 20260905204734 | 32 | 179 | 4.8 | 12.9 | 0.00 | 0.00 | 0.00 | 70 | 1012.6 |
| 20260905204230 | 32 | 186 | 4.8 | 9.7 | 0.00 | 0.00 | 0.00 | 70 | 1012.6 |
| 20260905203729 | 32 | 156 | 6.4 | 14.5 | 0.00 | 0.00 | 0.00 | 70 | 1012.4 |
| 20260905203225 | 32 | 169 | 9.7 | 11.3 | 0.00 | 0.00 | 0.00 | 70 | 1012.5 |
| 20260905202720 | 33 | 86 | 4.8 | 11.3 | 0.00 | 0.00 | 0.00 | 67 | 1012.6 |
| 20260905202215 | 33 | 228 | 3.2 | 9.7 | 0.00 | 0.00 | 0.00 | 67 | 1012.5 |
| 20260905201710 | 33 | 172 | 8.0 | 9.7 | 0.00 | 0.00 | 0.00 | 68 | 1012.7 |
| 20260905201205 | 33 | 83 | 4.8 | 8.0 | 0.00 | 0.00 | 0.00 | 66 | 1012.6 |
| 20260905200700 | 32 | 149 | 8.0 | 11.3 | 0.00 | 0.00 | 0.00 | 67 | 1012.9 |
| 20260905200155 | 33 | 160 | 6.4 | 11.3 | 0.00 | 0.00 | 0.00 | 66 | 1012.8 |
| 20260905195654 | 33 | 176 | 4.8 | 11.3 | 0.00 | 0.00 | 0.00 | 69 | 1012.7 |
| 20260905195149 | 33 | 179 | 6.4 | 11.3 | 0.00 | 0.00 | 0.00 | 68 | 1012.9 |
| 20260905194644 | 33 | 94 | 6.4 | 11.3 | 0.00 | 0.00 | 0.00 | 68 | 1012.9 |
| 20260905194138 | 32 | 158 | 4.8 | 9.7 | 0.00 | 0.00 | 0.00 | 69 | 1013.0 |
| 20260905193632 | 32 | 192 | 8.0 | 12.9 | 0.00 | 0.00 | 0.00 | 69 | 1013.0 |
| 20260905193127 | 33 | 149 | 6.4 | 11.3 | 0.00 | 0.00 | 0.00 | 68 | 1012.9 |
| 20260905192623 | 33 | 174 | 9.7 | 11.3 | 0.00 | 0.00 | 0.00 | 67 | 1013.0 |
| 20260905192119 | 33 | 171 | 8.0 | 9.7 | 0.00 | 0.00 | 0.00 | 52 | 1013.1 |
| 20260905191618 | 33 | 106 | 1.6 | 3.2 | 0.00 | 0.00 | 0.00 | 53 | 1013.1 |
| 20260905191117 | 35 | 71 | 0.0 | 1.6 | 0.00 | 0.00 | 0.00 | 49 | 1013.2 |
| 20260905190615 | 35 | 40 | 3.2 | 4.8 | 0.00 | 0.00 | 0.00 | 49 | 1013.1 |
| 20260905190114 | 35 | 40 | 1.6 | 3.2 | 0.00 | 0.00 | 0.00 | 49 | 1013.2 |
| 20260905185614 | 35 | 302 | 4.8 | 8.0 | 0.00 | 0.00 | 0.00 | 49 | 1013.3 |
| 20260905185108 | 36 | 283 | 4.8 | 8.0 | 0.00 | 0.00 | 0.00 | 47 | 1013.4 |
| 20260905184603 | 35 | 358 | 1.6 | 3.2 | 0.00 | 0.00 | 0.00 | 50 | 1013.5 |
| 20260905184102 | 36 | 334 | 1.6 | 4.8 | 0.00 | 0.00 | 0.00 | 50 | 1013.6 |
| 20260905183601 | 36 | 37 | 1.6 | 8.0 | 0.00 | 0.00 | 0.00 | 49 | 1013.7 |
| 20260905183057 | 35 | 75 | 0.0 | 1.6 | 0.00 | 0.00 | 0.00 | 50 | 1013.6 |
| 20260905182556 | 34 | 108 | 1.6 | 3.2 | 0.00 | 0.00 | 0.00 | 52 | 1013.8 |
| 20260905182050 | 34 | 93 | 1.6 | 8.0 | 0.00 | 0.00 | 0.00 | 53 | 1014.1 |
| 20260905181545 | 35 | 50 | 0.0 | 3.2 | 0.00 | 0.00 | 0.00 | 52 | 1014.1 |
| 20260905181045 | 35 | 199 | 3.2 | 8.0 | 0.00 | 0.00 | 0.00 | 53 | 1014.1 |
| 20260905180545 | 34 | 334 | 4.8 | 4.8 | 0.00 | 0.00 | 0.00 | 53 | 1014.3 |
| 20260905180041 | 35 | 38 | 0.0 | 1.6 | 0.00 | 0.00 | 0.00 | 52 | 1014.3 |
| 20260905175539 | 34 | 179 | 1.6 | 3.2 | 0.00 | 0.00 | 0.00 | 52 | 1014.2 |
| 20260905175035 | 35 | 37 | 0.0 | 3.2 | 0.00 | 0.00 | 0.00 | 51 | 1014.3 |
| 20260905174531 | 35 | 49 | 0.0 | 3.2 | 0.00 | 0.00 | 0.00 | 50 | 1014.3 |
| 20260905174026 | 34 | 44 | 1.6 | 4.8 | 0.00 | 0.00 | 0.00 | 53 | 1014.5 |
| 20260905173523 | 34 | 84 | 1.6 | 4.8 | 0.00 | 0.00 | 0.00 | 54 | 1014.7 |
| 20260905173018 | 35 | 36 | 3.2 | 4.8 | 0.00 | 0.00 | 0.00 | 51 | 1014.5 |
| 20260905172516 | 35 | 55 | 0.0 | 4.8 | 0.00 | 0.00 | 0.00 | 52 | 1014.7 |
| 20260905172012 | 35 | 77 | 1.6 | 3.2 | 0.00 | 0.00 | 0.00 | 52 | 1014.5 |
| 20260905171508 | 35 | 57 | 0.0 | 3.2 | 0.00 | 0.00 | 0.00 | 52 | 1014.9 |
| 20260905171003 | 34 | 41 | 0.0 | 4.8 | 0.00 | 0.00 | 0.00 | 55 | 1015.0 |
| 20260905170500 | 33 | 29 | 1.6 | 3.2 | 0.00 | 0.00 | 0.00 | 55 | 1015.1 |
| 20260905165954 | 34 | 28 | 0.0 | 3.2 | 0.00 | 0.00 | 0.00 | 54 | 1015.2 |
| 20260905165449 | 34 | 7 | 3.2 | 3.2 | 0.00 | 0.00 | 0.00 | 53 | 1015.0 |
| 20260905164944 | 33 | 12 | 4.8 | 9.7 | 0.00 | 0.00 | 0.00 | 55 | 1015.4 |
| 20260905164438 | 33 | 45 | 0.0 | 1.6 | 0.00 | 0.00 | 0.00 | 57 | 1015.3 |
| 20260905163933 | 33 | 34 | 1.6 | 3.2 | 0.00 | 0.00 | 0.00 | 55 | 1015.5 |
| 20260905163430 | 32 | 67 | 1.6 | 1.6 | 0.00 | 0.00 | 0.00 | 58 | 1015.4 |
| 20260905162925 | 33 | 68 | 0.0 | 1.6 | 0.00 | 0.00 | 0.00 | 56 | 1015.4 |
| 20260905162420 | 33 | 47 | 0.0 | 4.8 | 0.00 | 0.00 | 0.00 | 56 | 1015.7 |
| 20260905161915 | 33 | 353 | 3.2 | 8.0 | 0.00 | 0.00 | 0.00 | 56 | 1015.6 |
| 20260905161414 | 33 | 86 | 3.2 | 4.8 | 0.00 | 0.00 | 0.00 | 55 | 1015.4 |
| 20260905160912 | 34 | 15 | 4.8 | 4.8 | 0.00 | 0.00 | 0.00 | 55 | 1015.5 |
| 20260905160406 | 35 | 347 | 3.2 | 3.2 | 0.00 | 0.00 | 0.00 | 54 | 1015.6 |
| 20260905155900 | 34 | 53 | 0.0 | 3.2 | 0.00 | 0.00 | 0.00 | 55 | 1015.5 |
| 20260905155355 | 34 | 54 | 0.0 | 1.6 | 0.00 | 0.00 | 0.00 | 55 | 1015.4 |
| 20260905154854 | 34 | 20 | 1.6 | 1.6 | 0.00 | 0.00 | 0.00 | 55 | 1015.3 |
| 20260905154350 | 33 | 32 | 0.0 | 3.2 | 0.00 | 0.00 | 0.00 | 57 | 1015.2 |
| 20260905153845 | 33 | 0 | 4.8 | 4.8 | 0.00 | 0.00 | 0.00 | 57 | 1015.1 |
| 20260905153342 | 33 | 40 | 0.0 | 1.6 | 0.00 | 0.00 | 0.00 | 61 | 1015.1 |
| 20260905152841 | 32 | 47 | 1.6 | 8.0 | 0.00 | 0.00 | 0.00 | 63 | 1015.1 |
| 20260905152340 | 32 | 14 | 8.0 | 11.3 | 0.00 | 0.00 | 0.00 | 63 | 1015.2 |
| 20260905151835 | 32 | 26 | 1.6 | 8.0 | 0.00 | 0.00 | 0.00 | 64 | 1015.4 |
| 20260905151331 | 32 | 2 | 4.8 | 9.7 | 0.00 | 0.00 | 0.00 | 65 | 1015.1 |
| 20260905150830 | 32 | 342 | 4.8 | 9.7 | 0.00 | 0.00 | 0.00 | 65 | 1015.3 |
| 20260905150326 | 31 | 45 | 0.0 | 8.0 | 0.00 | 0.00 | 0.00 | 68 | 1015.4 |
| 20260905145823 | 32 | 23 | 3.2 | 8.0 | 0.00 | 0.00 | 0.00 | 65 | 1015.4 |
| 20260905145322 | 31 | 40 | 3.2 | 8.0 | 0.00 | 0.00 | 0.00 | 67 | 1015.5 |
| 20260905144821 | 31 | 20 | 0.0 | 4.8 | 0.00 | 0.00 | 0.00 | 68 | 1015.6 |
| 20260905144317 | 31 | 14 | 1.6 | 4.8 | 0.00 | 0.00 | 0.00 | 69 | 1015.5 |
| 20260905143816 | 31 | 25 | 3.2 | 4.8 | 0.00 | 0.00 | 0.00 | 70 | 1015.4 |
| 20260905143311 | 30 | 30 | 1.6 | 3.2 | 0.00 | 0.00 | 0.00 | 70 | 1015.4 |
| 20260905142809 | 30 | 5 | 1.6 | 4.8 | 0.00 | 0.00 | 0.00 | 71 | 1015.4 |
| 20260905142306 | 30 | 48 | 1.6 | 3.2 | 0.00 | 0.00 | 0.00 | 72 | 1015.6 |
| 20260905141800 | 30 | 25 | 0.0 | 3.2 | 0.00 | 0.00 | 0.00 | 73 | 1015.7 |
| 20260905141255 | 30 | 23 | 3.2 | 8.0 | 0.00 | 0.00 | 0.00 | 72 | 1015.6 |
| 20260905140751 | 30 | 333 | 4.8 | 4.8 | 0.00 | 0.00 | 0.00 | 73 | 1015.9 |
| 20260905140250 | 29 | 1 | 1.6 | 9.7 | 0.00 | 0.00 | 0.00 | 75 | 1015.8 |
| 20260905135749 | 29 | 19 | 1.6 | 3.2 | 0.00 | 0.00 | 0.00 | 75 | 1015.9 |
| 20260905135245 | 28 | 358 | 3.2 | 8.0 | 0.00 | 0.00 | 0.00 | 75 | 1015.8 |
| 20260905134744 | 28 | 20 | 3.2 | 3.2 | 0.00 | 0.00 | 0.00 | 76 | 1015.7 |
| 20260905134239 | 28 | 12 | 1.6 | 8.0 | 0.00 | 0.00 | 0.00 | 77 | 1015.6 |
| 20260905133734 | 28 | 25 | 3.2 | 4.8 | 0.00 | 0.00 | 0.00 | 78 | 1015.7 |
| 20260905133229 | 28 | 10 | 1.6 | 4.8 | 0.00 | 0.00 | 0.00 | 79 | 1015.7 |
| 20260905132728 | 28 | 0 | 1.6 | 3.2 | 0.00 | 0.00 | 0.00 | 81 | 1015.7 |